TimeCST,TemperatureF,Dew PointF,Humidity,Sea Level PressureIn,VisibilityMPH,Wind Direction,Wind SpeedMPH,Gust SpeedMPH,PrecipitationIn,Events,Conditions,WindDirDegrees,DateUTC
12:52 AM,35.1,23.0,61,30.14,10.0,Calm,Calm,-,N/A,,Clear,0,2012-11-07 06:52:00
1:52 AM,35.1,23.0,61,30.13,10.0,Calm,Calm,-,N/A,,Clear,0,2012-11-07 07:52:00
2:52 AM,34.0,23.0,64,30.15,10.0,Calm,Calm,-,N/A,,Clear,0,2012-11-07 08:52:00
3:52 AM,35.1,23.0,61,30.15,10.0,Calm,Calm,-,N/A,,Clear,0,2012-11-07 09:52:00
4:52 AM,30.2,21.2,69,30.16,10.0,West,3.5,-,N/A,,Clear,270,2012-11-07 10:52:00
5:52 AM,34.0,23.0,64,30.19,10.0,West,3.5,-,N/A,,Clear,260,2012-11-07 11:52:00
6:52 AM,30.9,23.0,72,30.21,10.0,Calm,Calm,-,N/A,,Clear,0,2012-11-07 12:52:00
7:52 AM,33.1,26.1,75,30.23,10.0,Calm,Calm,-,N/A,,Clear,0,2012-11-07 13:52:00
8:52 AM,41.0,27.0,57,30.22,10.0,Calm,Calm,-,N/A,,Clear,0,2012-11-07 14:52:00
9:52 AM,46.9,28.9,50,30.23,10.0,Calm,Calm,-,N/A,,Clear,0,2012-11-07 15:52:00
10:52 AM,52.0,30.9,45,30.22,10.0,Calm,Calm,-,N/A,,Clear,0,2012-11-07 16:52:00
11:52 AM,55.9,30.0,37,30.19,10.0,East,4.6,-,N/A,,Clear,90,2012-11-07 17:52:00
12:52 PM,57.9,30.0,35,30.14,10.0,NE,6.9,-,N/A,,Clear,40,2012-11-07 18:52:00
1:52 PM,57.9,28.9,33,30.10,10.0,Variable,4.6,-,N/A,,Clear,0,2012-11-07 19:52:00
2:52 PM,60.1,28.0,30,30.09,10.0,Variable,3.5,-,N/A,,Clear,0,2012-11-07 20:52:00
3:52 PM,61.0,28.0,29,30.08,10.0,ESE,8.1,-,N/A,,Clear,120,2012-11-07 21:52:00
4:52 PM,57.9,28.0,32,30.07,10.0,SE,6.9,-,N/A,,Clear,130,2012-11-07 22:52:00
5:52 PM,51.1,28.0,41,30.07,10.0,ESE,4.6,-,N/A,,Clear,120,2012-11-07 23:52:00
6:52 PM,48.9,28.9,46,30.09,10.0,SE,3.5,-,N/A,,Clear,130,2012-11-08 00:52:00
7:52 PM,46.0,28.9,51,30.09,10.0,Calm,Calm,-,N/A,,Clear,0,2012-11-08 01:52:00
8:52 PM,48.0,28.9,48,30.07,10.0,Calm,Calm,-,N/A,,Clear,0,2012-11-08 02:52:00
9:52 PM,46.9,28.9,50,30.08,10.0,Calm,Calm,-,N/A,,Clear,0,2012-11-08 03:52:00
10:52 PM,45.0,28.9,53,30.06,10.0,Calm,Calm,-,N/A,,Clear,0,2012-11-08 04:52:00
11:52 PM,44.1,28.9,55,30.05,10.0,Calm,Calm,-,N/A,,Clear,0,2012-11-08 05:52:00